Regional Weather Roundup
Issued by NWS Austin/San Antonio, TX

Home | Current Version | Previous Version | Text Only | Print | Product List | Glossary On
Versions: 1 2 3 4 5 6 7 8 9 10 11 12 13 14 15 16 17 18 19 20 21 22 23 24 25 26 27 28 29 30 31 32 33 34 35 36 37 38 39 40 41 42 43 44 45 46 47 48 49 50
124
ASUS44 KEWX 170502
RWREWX
SOUTH TEXAS REGIONAL WEATHER ROUNDUP
NATIONAL WEATHER SERVICE AUSTIN/SAN ANTONIO TX
1100 PM CST TUE JAN 16 2018

NOTE: "FAIR" INDICATED FEW OR NO CLOUDS BELOW 12,000 FEET WITH NO
SIGNIFICANT WEATHER AND/OR OBSTRUCTIONS TO VISIBILITY.

* - THESE STATIONS ARE NOT NWS OR FAA STATIONS...AND ARE NOT SUBJECT
    TO NWS AND FAA QUALITY CONTROL.

TXZ171-172-183>190-170600-
TEXAS HILL COUNTRY AND EDWARDS PLATEAU

CITY           SKY/WX    TMP DP  RH WIND       PRES   REMARKS
JUNCTION       CLOUDY    27  -1  30 NE7       30.66S WCI  19
*LLANO         CLOUDY    27   3  36 N5        30.75S WCI  21
BURNET         CLOUDY    23   2  40 N5        30.72R WCI  17
*HORSESHOE BAY CLOUDY    28   3  34 N6        30.71R WCI  22
*KERRVILLE     CLOUDY    25   1  34 N8        30.66S WCI  17
*FREDERICKSBRG CLOUDY    26  -3  28 N8        30.67R WCI  17
*ROCKSPRINGS     N/A     25  -4  28 VRB6      30.68R WCI  18
*BOERNE STAGE  CLOUDY    27   3  36 N13       30.67S WCI  16
*CASTROVILLE   CLOUDY    30   5  35 N6        30.74R WCI  24
HONDO          CLOUDY    30  16  56 NE6       30.71R WCI  24
*UVALDE        CLOUDY    31   7  36 NE3       30.73R
DEL RIO        CLOUDY    34   2  25 N5        30.72R WCI  30
LAUGHLIN AFB   CLOUDY    33  -1  22 N3        30.72R
CARRIZO SPRGS  CLOUDY    34  12  40 CALM      30.73R
*EAGLE PASS    CLOUDY    36   3  25 N8        30.73R WCI  29
*FAITH RANCH   CLOUDY    34  16  47 CALM      30.72S
$$

TXZ173-191>194-202-209-217>225-228-170600-
CENTRAL AND SOUTH CENTRAL TEXAS

CITY           SKY/WX    TMP DP  RH WIND       PRES   REMARKS
GEORGETOWN     CLOUDY    23   8  52 NW5       30.74S WCI  17
AUSTIN/BERGSTM CLOUDY    27  13  55 N10       30.73S WCI  17
AUSTIN/MABRY   CLOUDY    28   5  37 N8        30.74S WCI  20
*AUSTIN/EXEC   CLOUDY    27   7  43 N9        30.74R WCI  17
*LAGO VISTA    CLOUDY    27   4  37 N6        30.69S WCI  20
SAN MARCOS     CLOUDY    27  13  55 N12       30.73S WCI  17
NEW BRAUNFELS  CLOUDY    28  10  46 N13       30.70S WCI  17
RANDOLPH AFB   CLOUDY    28   5  37 N9        30.70S WCI  20
PT SAN ANTONIO CLOUDY   N/A N/A N/A N9        30.70R
SAN ANTONIO    CLOUDY    28   5  37 N6        30.71R WCI  22
STINSON FIELD  CLOUDY    31   7  36 N12       30.71S WCI  22
*LA GRANGE     CLOUDY    27  12  51 N9        30.72S WCI  18
*GIDDINGS      CLOUDY    25  12  57 N8        30.74S WCI  17
*GONZALES      CLOUDY    26  14  60 N8        30.73S WCI  18
$$

TXZ163>164-176>182-195>201-210>213-226-227-235-170600-
SOUTHEAST TEXAS

CITY           SKY/WX    TMP DP  RH WIND       PRES   REMARKS
COLLEGE STN    CLOUDY    22  11  62 N7        30.75R WCI  13
*BRYAN         CLOUDY    21   9  61 N3        30.76S
*CALDWELL      CLOUDY    22  10  59 N5        30.75S WCI  16
*CROCKETT        N/A     18   9  68 CALM      30.77S
*BRENHAM       CLOUDY    26  15  63 N10       30.74S WCI  16
HUNTSVILLE     CLEAR     20  10  65 N3        30.72S
CONROE         PTCLDY    24  12  60 N8        30.72S WCI  15
HOUSTON BUSH   CLOUDY    26  15  63 N15G21    30.72S WCI  14
HOUSTON HOBBY  CLOUDY    26  18  71 N14G22    30.70F WCI  14
*HOUSTON SW AP CLOUDY    25  18  76 MISG      30.72S
PEARLAND       CLOUDY    26  19  74 N12       30.72F WCI  16
HOUSTON HOOKS  CLOUDY    26  15  63 N15G21    30.72S WCI  14
ELLINGTON FLD  MOCLDY    27  18  69 N5        30.71F WCI  21
SUGAR LAND     CLOUDY    27  16  63 N16       30.71S WCI  15
*HOUSTON EXEC  CLOUDY    25  18  74 CALM      30.73S
*CLEVELAND MUN FAIR      24  10  56 N10G16    30.74R WCI  13
*WHARTON       CLOUDY    26  18  73 CALM      30.73S
*COLUMBUS      CLOUDY    26  10  52 N10G21    30.73S WCI  15
*EAGLE LAKE    CLOUDY    26  19  72 MISG      30.72S
$$

TXZ214>216-236>238-170600-
THE UPPER TEXAS COAST

CITY           SKY/WX    TMP DP  RH WIND       PRES   REMARKS
*ORANGE        MOCLDY    27  22  81 N8        30.70S WCI  19
PORT ARTHUR    MOCLDY    27  19  72 N12       30.68S WCI  17
GALVESTON      CLOUDY    30  21  69 N24G33    30.69S WCI  16
ANGLETON       CLOUDY    27  20  75 N9        30.70S WCI  18
*BAY CITY      CLOUDY    27  22  82 N7        30.71R WCI  19
PALACIOS       CLOUDY    27  22  81 N16       30.71F WCI  15
$$

TXZ229>234-239>247-170600-
TEXAS COASTAL BEND AND RIO GRANDE PLAINS

CITY           SKY/WX    TMP DP  RH WIND       PRES   REMARKS
VICTORIA       CLOUDY    27  15  61 N15       30.73S WCI  15
*BEEVILLE      CLOUDY    30  11  46 N13G24    30.73F WCI  20
ROCKPORT       CLOUDY    29  17  61 N20       30.72F WCI  16
*PORT ARANSAS  NOT AVBL
*PORT LAVACA   CLOUDY    27  22  80 N14       30.73R WCI  16
*INGLESIDE     CLOUDY    31  18  59 N10       30.72S WCI  22
CORPUS CHRISTI CLOUDY    30  15  53 N15       30.73S WCI  19
CORPUS NAS     CLOUDY    33  18  53 N21       30.72S WCI  21
*ROBSTOWN      NOT AVBL
ALICE          CLOUDY    32  13  45 N9        30.72S WCI  24
KINGSVILLE NAS CLOUDY    32  14  47 N16       30.73S WCI  21
COTULLA        CLOUDY    33   7  33 N10       30.74R WCI  25
LAREDO         CLOUDY    34  20  56 N5        30.74R WCI  30
$$

TXZ248>255-170600-
DEEP SOUTH TEXAS

CITY           SKY/WX    TMP DP  RH WIND       PRES   REMARKS
BROWNSVILLE    NOT AVBL
PORT ISABEL    NOT AVBL
*SOUTH PADRE   NOT AVBL
HARLINGEN      NOT AVBL
*HEBBRONVILLE  CLOUDY    30  25  82 N5        30.72R WCI  25
MCALLEN        CLOUDY    34  27  75 NW12      30.74R WCI  25
*WESLACO       CLOUDY    30  27  86 N8        30.73S WCI  23
FALFURRIAS     CLOUDY    33  16  49 N9        30.73S WCI  25
EDINBURG       CLOUDY    33  29  85 NW8       30.74S WCI  26
*ZAPATA        CLOUDY    34  25  69 N3        30.73F
$$

TXZ213>215-236>238-242>244-246-247-251-254-255-170600-
CMAN STATIONS

STATION/POSITION TIME  TEMP    WIND        PRES    WAVE
                       AIR SEA DIR/SP/G            HT/PER
                 (UTC) (F)     (DEG/KT/KT) (MB)    (FT/S)
SABINE PASS      0424   29 50  340/ 16/ 22   N/A
SEA RIM ST PARK  0400   27     360/ 11/ 13 1039.1
NORTH JETTY/GLS  0424      45  360/ 21/ 23 1038.5
EAGLE POINT      0424   28 44   20/ 12/ 17 1039.8
MORGANS POINT    0430      47   10/  5/  8 1039.8
PORT O`CONNOR    0424   29 36  360/ 19/ 22 1040.2
MALAQUITE BEACH  0430   31 51  340/ 19/ 23 1039.5
BAFFIN BAY       0430   31 47  340/ 15/ 18 1040.5
PORT ISABEL      0430   30 56  330/ 11/ 16 1038.1
$$




USA.gov is the U.S. government's official web portal to all federal, state and local government web resources and services.